W4SNA-4 Weather Reports


Display with metric or nautical units.
time (UTC)temp
F
wind
direction
speed
MPH
gust
MPH
rain 1hr
in
rain 24hr
in
rain mn
in
humidity
%
barometer
mb
20260903100707 79 0 0.0 0.0 0.00 0.00 0.00 82 1012.9
20260903100241 79 0 0.0 0.0 0.00 0.00 0.00 82 1012.9
20260903095701 79 0 0.0 0.0 0.00 0.00 0.00 82 1012.9
20260903095201 79 0 0.0 0.0 0.00 0.00 0.00 81 1012.8
20260903094701 79 0 0.0 0.0 0.00 0.00 0.00 81 1012.8
20260903094206 79 0 0.0 0.0 0.00 0.00 0.00 81 1012.8
20260903093701 79 0 0.0 0.0 0.00 0.00 0.00 80 1012.7
20260903093213 79 0 0.0 0.0 0.00 0.00 0.00 79 1012.7
20260903092703 79 0 0.0 0.0 0.00 0.00 0.00 80 1012.7
20260903092204 79 0 0.0 0.0 0.00 0.00 0.00 79 1012.8
20260903091705 79 0 0.0 0.0 0.00 0.00 0.00 79 1012.8
20260903091206 80 0 0.0 0.0 0.00 0.00 0.00 79 1012.8
20260903090701 80 0 0.0 0.0 0.00 0.00 0.00 79 1012.7
20260903090205 80 0 0.0 0.0 0.00 0.00 0.00 79 1012.7
20260903085603 80 0 0.0 0.0 0.00 0.00 0.00 79 1012.5
20260903085103 80 0 0.0 0.0 0.00 0.00 0.00 79 1012.5
20260903084604 80 0 0.0 0.0 0.00 0.00 0.00 78 1012.5
20260903084103 80 0 0.0 0.0 0.00 0.00 0.00 77 1012.5
20260903083606 80 0 0.0 0.0 0.00 0.00 0.00 77 1012.5
20260903083106 80 0 0.0 0.0 0.00 0.00 0.00 77 1012.5
20260903082603 79 0 0.0 0.0 0.00 0.00 0.00 77 1012.5
20260903082110 79 0 0.0 0.0 0.00 0.00 0.00 77 1012.5
20260903081604 79 0 0.0 0.0 0.00 0.00 0.00 78 1012.5
20260903081104 79 0 0.0 0.0 0.00 0.00 0.00 78 1012.5
20260903080604 79 0 0.0 0.0 0.00 0.00 0.00 78 1012.5
20260903075609 79 0 0.0 0.0 0.00 0.00 0.00 78 1012.5
20260903075104 79 0 0.0 0.0 0.00 0.00 0.00 78 1012.5
20260903074604 79 0 0.0 0.0 0.00 0.00 0.00 79 1012.5
20260903073848 79 0 0.0 0.0 0.00 0.00 0.00 80 1012.5
20260903073340 79 0 0.0 0.0 0.00 0.00 0.00 80 1012.5
20260903072840 78 0 0.0 0.0 0.00 0.00 0.00 80 1012.5
20260903072341 78 0 0.0 0.0 0.00 0.00 0.00 81 1012.5
20260903071851 78 0 0.0 0.0 0.00 0.00 0.00 81 1012.5
20260903071340 78 0 0.0 0.0 0.00 0.00 0.00 81 1012.5
20260903070839 78 0 0.0 0.0 0.00 0.00 0.00 83 1012.5
20260903070344 78 0 0.0 0.0 0.00 0.00 0.00 83 1012.5
20260903065840 79 0 0.0 0.0 0.00 0.00 0.00 82 1012.5
20260903065343 79 0 0.0 0.0 0.00 0.00 0.00 82 1012.5
20260903064843 80 0 0.0 0.0 0.00 0.00 0.00 80 1012.5
20260903064340 80 0 0.0 0.0 0.00 0.00 0.00 77 1012.5
20260903063846 81 0 0.0 0.0 0.00 0.00 0.00 75 1012.4
20260903063339 81 0 0.0 0.0 0.00 0.00 0.00 74 1012.4
20260903062840 81 0 0.0 0.0 0.00 0.00 0.00 74 1012.4
20260903062339 82 0 0.0 0.0 0.00 0.00 0.00 74 1012.4
20260903061340 81 0 0.0 0.0 0.00 0.00 0.00 74 1012.4
20260903060840 81 0 0.0 0.0 0.00 0.00 0.00 74 1012.4
20260903060340 81 0 0.0 0.0 0.00 0.00 0.00 74 1012.4
20260903055845 81 0 0.0 0.0 0.00 0.00 0.00 74 1012.4
20260903055343 81 0 0.0 0.0 0.00 0.00 0.00 73 1012.4
20260903054839 81 0 0.0 0.0 0.00 0.00 0.00 73 1012.4
20260903054340 81 0 0.0 1.0 0.00 0.00 0.00 73 1012.4
20260903053840 81 0 0.0 1.0 0.00 0.00 0.00 73 1012.4
20260903053340 81 0 0.0 0.0 0.00 0.00 0.00 74 1012.4
20260903052840 81 0 0.0 0.0 0.00 0.00 0.00 74 1012.4
20260903052342 81 0 0.0 0.0 0.00 0.00 0.00 73 1012.4
20260903051840 82 0 0.0 0.0 0.00 0.00 0.00 73 1012.4
20260903051340 82 0 0.0 0.0 0.00 0.00 0.00 72 1012.4
20260903050844 82 0 0.0 0.0 0.00 0.00 0.00 72 1012.5
20260903050339 82 0 0.0 0.0 0.00 0.00 0.00 72 1012.5
20260903045844 83 0 0.0 0.0 0.00 0.00 0.00 70 1012.5
20260903045339 83 0 0.0 0.0 0.00 0.00 0.00 70 1012.6
20260903044844 84 0 0.0 0.0 0.00 0.00 0.00 67 1012.6
20260903044340 84 0 0.0 0.0 0.00 0.00 0.00 66 1012.6
20260903043844 84 0 0.0 0.0 0.00 0.00 0.00 66 1012.7
20260903043340 85 0 0.0 0.0 0.00 0.00 0.00 65 1012.7
20260903042840 85 0 0.0 0.0 0.00 0.00 0.00 65 1012.7
20260903042341 85 0 0.0 0.0 0.00 0.00 0.00 64 1012.7
20260903041839 85 0 0.0 0.0 0.00 0.00 0.00 64 1012.7
20260903041340 85 0 0.0 0.0 0.00 0.00 0.00 64 1012.7
20260903040839 85 0 0.0 0.0 0.00 0.00 0.00 62 1012.8
20260903040340 85 0 0.0 0.0 0.00 0.00 0.00 62 1012.8
20260903035844 85 0 0.0 0.0 0.00 0.00 0.00 63 1012.8
20260903035340 86 0 0.0 0.0 0.00 0.00 0.00 63 1012.8
20260903034840 86 0 0.0 0.0 0.00 0.00 0.00 61 1012.8
20260903034340 87 0 0.0 0.0 0.00 0.00 0.00 58 1012.8
20260903033840 87 0 0.0 0.0 0.00 0.00 0.00 57 1013.1
20260903033339 87 0 0.0 0.0 0.00 0.00 0.00 57 1013.1
20260903032842 87 0 0.0 0.0 0.00 0.00 0.00 55 1013.1
20260903032339 87 0 0.0 0.0 0.00 0.00 0.00 55 1013.3
20260903031842 87 0 0.0 0.0 0.00 0.00 0.00 56 1013.3
20260903031340 87 0 0.0 0.0 0.00 0.00 0.00 56 1013.3
20260903030840 87 0 0.0 0.0 0.00 0.00 0.00 56 1013.3
20260903030340 87 0 0.0 0.0 0.00 0.00 0.00 56 1013.3
20260903025840 87 0 0.0 0.0 0.00 0.00 0.00 55 1013.3
20260903025340 87 0 0.0 0.0 0.00 0.00 0.00 55 1013.5
20260903024920 87 0 0.0 0.0 0.00 0.00 0.00 55 1013.5
20260903024839 87 0 0.0 0.0 0.00 0.00 0.00 55 1013.5
20260903024340 88 0 0.0 0.0 0.00 0.00 0.00 55 1013.5
20260903023839 88 0 0.0 0.0 0.00 0.00 0.00 55 1013.5
20260903023340 88 0 0.0 0.0 0.00 0.00 0.00 55 1013.5
20260903022840 88 0 0.0 0.0 0.00 0.00 0.00 55 1013.5
20260903022340 87 0 0.0 0.0 0.00 0.00 0.00 55 1013.6
20260903021843 87 0 0.0 0.0 0.00 0.00 0.00 56 1013.6
20260903021339 88 0 0.0 0.0 0.00 0.00 0.00 56 1013.6
20260903020840 87 0 0.0 0.0 0.00 0.00 0.00 56 1013.6
20260903020339 87 0 0.0 0.0 0.00 0.00 0.00 56 1013.6
20260903015840 87 0 0.0 0.0 0.00 0.00 0.00 56 1013.6
20260903015339 87 0 0.0 0.0 0.00 0.00 0.00 57 1013.5
20260903014842 87 0 0.0 0.0 0.00 0.00 0.00 57 1013.5
20260903014340 87 0 0.0 0.0 0.00 0.00 0.00 57 1013.5
20260903013844 87 0 0.0 0.0 0.00 0.00 0.00 56 1013.2
20260903013340 87 0 0.0 0.0 0.00 0.00 0.00 57 1013.2
20260903012839 87 0 0.0 0.0 0.00 0.00 0.00 57 1013.2
20260903012340 87 0 0.0 0.0 0.00 0.00 0.00 57 1013.1
20260903011840 88 0 0.0 0.0 0.00 0.00 0.00 57 1013.1
20260903011354 88 0 0.0 0.0 0.00 0.00 0.00 57 1013.1
20260903010839 88 0 0.0 0.0 0.00 0.00 0.00 57 1013.0
20260903010339 88 0 0.0 0.0 0.00 0.00 0.00 57 1013.0
20260903005840 88 0 0.0 0.0 0.00 0.00 0.00 57 1013.0
20260903005339 88 0 0.0 0.0 0.00 0.00 0.00 57 1013.0
20260903004840 88 0 0.0 0.0 0.00 0.00 0.00 57 1013.0
20260903004339 88 0 0.0 0.0 0.00 0.00 0.00 57 1013.0
20260903003840 88 0 0.0 0.0 0.00 0.00 0.00 57 1013.0
20260903003339 88 0 0.0 0.0 0.00 0.00 0.00 57 1013.0
20260903002845 88 0 0.0 0.0 0.00 0.00 0.00 57 1013.0
20260903002340 88 0 0.0 0.0 0.00 0.00 0.00 57 1012.8
20260903001839 88 0 0.0 0.0 0.00 0.00 0.00 57 1012.8
20260903001340 88 0 0.0 0.0 0.00 0.00 0.00 57 1012.8
20260903000839 88 0 0.0 0.0 0.00 0.00 0.00 57 1012.5
20260903000340 88 0 0.0 0.0 0.00 0.00 0.00 57 1012.5
20260902235840 89 0 0.0 0.0 0.00 0.00 0.00 57 1012.5
20260902235141 89 0 0.0 0.0 0.00 0.00 0.00 57 1012.7
20260902234642 89 0 0.0 0.0 0.00 0.00 0.00 57 1012.7
20260902233833 89 0 0.0 0.0 0.00 0.00 0.00 58 1012.7
20260902233332 89 0 0.0 0.0 0.00 0.00 0.00 57 1012.7
20260902232832 89 0 0.0 0.0 0.00 0.00 0.00 57 1012.7
20260902232332 89 0 0.0 0.0 0.00 0.00 0.00 57 1012.6
20260902231835 89 0 0.0 0.0 0.00 0.00 0.00 57 1012.6
20260902231333 89 0 0.0 0.0 0.00 0.00 0.00 57 1012.6
20260902230832 90 0 0.0 0.0 0.00 0.00 0.00 57 1012.6
20260902230332 90 0 0.0 0.0 0.00 0.00 0.00 57 1012.6
20260902225832 90 0 0.0 0.0 0.00 0.00 0.00 58 1012.6
20260902225332 90 0 0.0 0.0 0.00 0.00 0.00 58 1012.6
20260902224832 90 0 0.0 0.0 0.00 0.00 0.00 57 1012.6
20260902224332 90 0 0.0 0.0 0.00 0.00 0.00 57 1012.6
20260902223832 90 0 0.0 0.0 0.00 0.00 0.00 56 1012.7
20260902223332 90 0 0.0 0.0 0.00 0.00 0.00 54 1012.7
20260902222832 91 0 0.0 0.0 0.00 0.00 0.00 55 1012.7
20260902222332 91 0 0.0 0.0 0.00 0.00 0.00 56 1012.7
20260902221834 91 0 0.0 0.0 0.00 0.00 0.00 56 1012.7
20260902221332 91 0 0.0 0.0 0.00 0.00 0.00 57 1012.7
20260902220832 91 0 0.0 0.0 0.00 0.00 0.00 56 1012.8
20260902220332 91 0 0.0 0.0 0.00 0.00 0.00 56 1012.8
20260902215832 91 0 0.0 0.0 0.00 0.00 0.00 56 1012.8
20260902215332 91 0 0.0 0.0 0.00 0.00 0.00 56 1012.9
20260902214832 92 0 0.0 0.0 0.00 0.00 0.00 56 1012.9
20260902214333 92 0 0.0 0.0 0.00 0.00 0.00 55 1012.9
20260902213832 92 0 0.0 0.0 0.00 0.00 0.00 54 1012.9
20260902213332 92 0 0.0 0.0 0.00 0.00 0.00 54 1012.9
20260902212833 92 0 0.0 0.0 0.00 0.00 0.00 54 1012.9
20260902212331 92 0 0.0 0.0 0.00 0.00 0.00 55 1013.0
20260902211832 92 0 0.0 1.0 0.00 0.00 0.00 53 1013.0
20260902211332 92 0 0.0 1.0 0.00 0.00 0.00 53 1013.0
20260902210347 92 0 0.0 0.0 0.00 0.00 0.00 54 1013.0
20260902205843 92 0 0.0 0.0 0.00 0.00 0.00 54 1013.0
20260902205343 92 0 0.0 0.0 0.00 0.00 0.00 54 1013.0
20260902204853 92 0 0.0 0.0 0.00 0.00 0.00 52 1013.0
20260902204343 92 0 0.0 0.0 0.00 0.00 0.00 52 1013.0
20260902195828 92 0 0.0 0.0 0.00 0.00 0.00 54 1013.1
20260902195328 92 0 0.0 0.0 0.00 0.00 0.00 54 1013.3
20260902194828 92 0 0.0 0.0 0.00 0.00 0.00 53 1013.3
20260902194331 92 0 0.0 0.0 0.00 0.00 0.00 53 1013.3
20260902193828 92 0 0.0 0.0 0.00 0.00 0.00 54 1013.5
20260902173501 90 0 0.0 0.0 0.00 0.00 0.00 57 1014.5
20260902173007 90 0 0.0 0.0 0.00 0.00 0.00 59 1014.5
20260902172501 90 0 0.0 0.0 0.00 0.00 0.00 58 1014.5
20260902172001 90 0 0.0 0.0 0.00 0.00 0.00 60 1014.5
20260902171500 90 0 0.0 0.0 0.00 0.00 0.00 62 1014.5
20260902171001 90 0 0.0 0.0 0.00 0.00 0.00 60 1014.6
20260902170500 90 0 0.0 0.0 0.00 0.00 0.00 61 1014.6
20260902170002 90 0 0.0 0.0 0.00 0.00 0.00 60 1014.6
20260902165501 90 0 0.0 0.0 0.00 0.00 0.00 61 1014.9
20260902165004 90 0 0.0 0.0 0.00 0.00 0.00 61 1014.9
20260902164502 90 0 0.0 0.0 0.00 0.00 0.00 61 1014.9
20260902164000 90 0 0.0 0.0 0.00 0.00 0.00 61 1015.1
20260902163504 90 0 0.0 0.0 0.00 0.00 0.00 61 1015.1
20260902163002 90 0 0.0 0.0 0.00 0.00 0.00 59 1015.1
20260902162500 89 0 0.0 0.0 0.00 0.00 0.00 59 1015.2
20260902162001 89 0 0.0 0.0 0.00 0.00 0.00 61 1015.2
20260902161500 89 0 0.0 0.0 0.00 0.00 0.00 61 1015.2
20260902161002 89 0 0.0 0.0 0.00 0.00 0.00 62 1015.2
20260902160008 89 0 0.0 0.0 0.00 0.00 0.00 63 1015.2
20260902155003 89 0 0.0 0.0 0.00 0.00 0.00 64 1015.2
20260902154505 90 0 0.0 0.0 0.00 0.00 0.00 64 1015.2
20260902154002 90 0 0.0 0.0 0.00 0.00 0.00 65 1015.2
20260902153502 89 0 0.0 0.0 0.00 0.00 0.00 62 1015.2
20260902153006 89 0 0.0 0.0 0.00 0.00 0.00 65 1015.2
20260902152506 88 0 0.0 0.0 0.00 0.00 0.00 70 1015.2
20260902151847 88 0 0.0 0.0 0.00 0.00 0.00 70 1015.2
20260902151346 88 0 0.0 0.0 0.00 0.00 0.00 69 1015.2
20260902150733 87 0 0.0 0.0 0.00 0.00 0.00 69 1015.2
20260902150233 87 0 0.0 0.0 0.00 0.00 0.00 69 1015.2
20260902145733 86 0 0.0 0.0 0.00 0.00 0.00 71 1015.2
20260902145233 86 0 0.0 0.0 0.00 0.00 0.00 72 1015.1
20260902144734 85 0 0.0 0.0 0.00 0.00 0.00 75 1015.1
20260902144239 84 0 0.0 0.0 0.00 0.00 0.00 74 1015.1
20260902143733 84 0 0.0 0.0 0.00 0.00 0.00 76 1015.0
20260902143234 84 0 0.0 0.0 0.00 0.00 0.00 76 1015.0
20260902142733 83 0 0.0 0.0 0.00 0.00 0.00 77 1015.0
20260902142233 83 0 0.0 0.0 0.00 0.00 0.00 78 1014.9
20260902141734 82 0 0.0 0.0 0.00 0.00 0.00 80 1014.9
20260902141236 81 0 0.0 0.0 0.00 0.00 0.00 80 1014.9
20260902140734 81 0 0.0 0.0 0.00 0.00 0.00 81 1014.8
20260902140233 80 0 0.0 0.0 0.00 0.00 0.00 82 1014.8
20260902135736 80 0 0.0 0.0 0.00 0.00 0.00 83 1014.8
20260902135233 79 0 0.0 0.0 0.00 0.00 0.00 84 1014.9
20260902134733 79 0 0.0 0.0 0.00 0.00 0.00 84 1014.9
20260902134233 79 0 0.0 0.0 0.00 0.00 0.00 84 1014.9
20260902133852 77 0 0.0 0.0 0.00 0.00 0.00 85 1014.9
20260902133756 79 0 0.0 0.0 0.00 0.00 0.00 85 1014.8
20260902133236 78 0 0.0 0.0 0.00 0.00 0.00 85 1014.8
20260902132733 78 0 0.0 0.0 0.00 0.00 0.00 85 1014.8
20260902132237 78 0 0.0 0.0 0.00 0.00 0.00 85 1014.9
20260902131733 77 0 0.0 0.0 0.00 0.00 0.00 85 1014.9
20260902131234 77 0 0.0 0.0 0.00 0.00 0.00 86 1014.9
20260902130735 77 0 0.0 0.0 0.00 0.00 0.00 86 1014.9
20260902130235 77 0 0.0 0.0 0.00 0.00 0.00 86 1014.9
20260902125733 77 0 0.0 0.0 0.00 0.00 0.00 86 1014.9
20260902125242 77 0 0.0 0.0 0.00 0.00 0.00 86 1014.9
20260902124734 77 0 0.0 0.0 0.00 0.00 0.00 86 1014.9
20260902124234 76 0 0.0 0.0 0.00 0.00 0.00 86 1014.9
20260902123733 76 0 0.0 0.0 0.00 0.00 0.00 86 1014.7
20260902123300 76 0 0.0 0.0 0.00 0.00 0.00 86 1014.7
20260902122734 76 0 0.0 0.0 0.00 0.00 0.00 86 1014.7
20260902122232 76 0 0.0 0.0 0.00 0.00 0.00 86 1014.7
20260902121735 76 0 0.0 0.0 0.00 0.00 0.00 86 1014.7
20260902121234 76 0 0.0 0.0 0.00 0.00 0.00 86 1014.7
20260902120507 76 0 0.0 0.0 0.00 0.00 0.00 86 1014.6
20260902120006 76 0 0.0 0.0 0.00 0.00 0.00 86 1014.6
20260902115508 76 0 0.0 0.0 0.00 0.00 0.00 86 1014.6
20260902115006 76 0 0.0 0.0 0.00 0.00 0.00 86 1014.6
20260902114506 76 0 0.0 0.0 0.00 0.00 0.00 86 1014.6
20260902114007 76 0 0.0 0.0 0.00 0.00 0.00 86 1014.6
20260902113509 76 0 0.0 0.0 0.00 0.00 0.00 86 1014.6
20260902113007 76 0 0.0 0.0 0.00 0.00 0.00 85 1014.6
20260902112508 76 0 0.0 0.0 0.00 0.00 0.00 85 1014.4
20260902112006 76 0 0.0 0.0 0.00 0.00 0.00 86 1014.4
20260902111510 76 0 0.0 0.0 0.00 0.00 0.00 85 1014.4
20260902111005 76 0 0.0 0.0 0.00 0.00 0.00 85 1014.2
20260902110455 76 0 0.0 0.0 0.00 0.00 0.00 85 1014.2
20260902105952 76 0 0.0 0.0 0.00 0.00 0.00 85 1014.2
20260902105452 76 0 0.0 0.0 0.00 0.00 0.00 86 1014.2
20260902104952 76 0 0.0 0.0 0.00 0.00 0.00 86 1014.2
20260902104452 76 0 0.0 0.0 0.00 0.00 0.00 85 1014.2
20260902103953 76 0 0.0 0.0 0.00 0.00 0.00 85 1014.2
20260902103451 77 0 0.0 0.0 0.00 0.00 0.00 85 1014.2
20260902102952 77 0 0.0 0.0 0.00 0.00 0.00 85 1014.2
20260902102459 77 0 0.0 0.0 0.00 0.00 0.00 84 1014.3
20260902101452 77 0 0.0 0.0 0.00 0.00 0.00 84 1014.3